User: anonymous   Login
Location: Unspecified
(42.3650°N, 71.1030°W)
Time: 06:35:01
(UTC+00:00)
Language:

JY1SAT - Orbit

View from above orbital plane
View from above orbital plane
View from above satellite
View from above satellite

Ground track
Ground track

The orbit data is extracted from the following two-line orbital elements,

1 43803U 18099AX  24197.10817024  .00013483  00000-0  87950-3 0  9992
2 43803  97.5188 255.1647 0009698 198.7450 161.3422 15.07959452306908
Epoch (UTC): 15 July 2024 02:35:45
Eccentricity: 0.0009698
inclination: 97.5188°
perigee height: 536 km
apogee height: 549 km
right ascension of ascending node: 255.1647°
argument of perigee: 198.7450°
revolutions per day: 15.07959452
mean anomaly at epoch: 161.3422°
orbit number at epoch: 30690

The dashed part of the orbit path shows where the satellite is in the earth's shadow,  

DLR